Weather Roundup
Issued by NWS

Home | Current Version | Previous Version | Text Only | Print | Product List | Glossary On
Versions: 1 2 3 4 5 6 7 8 9 10 11 12 13 14 15 16 17 18 19 20 21 22 23 24 25 26 27 28 29 30 31 32 33 34 35 36 37 38 39 40 41 42 43 44 45 46 47 48 49 50
000
NZUS93 KARX 281159
HRRWXR

CURRENT HOURLY OBSERVATIONS ACROSS
MUCH OF THE UPPER MISSISSIPPI VALLEY
NATIONAL WEATHER SERVICE LA CROSSE WI
700 AM CDT TUE APR 28 2015


...SOUTHEAST MINNESOTA...


CITY           SKY/WX    TMP DP  RH WIND       PRES   REMARKS
ROCHESTER      PTCLDY    50  26  39 NE3       30.18S
ROCHESTER/MAYO FAIR      45  34  65 CALM      30.17S
WINONA         CLEAR     37  34  87 CALM      30.18S
AUSTIN         CLEAR     39  32  75 CALM      30.17S
ALBERT LEA     CLEAR     39  30  70 CALM      30.18R
DODGE CENTER   PTCLDY    39  30  70 SW3       30.17R
PRESTON        PTCLDY    45  29  55 NW3       30.17S
OWATONNA       CLEAR     37  27  65 CALM      30.18R
FARIBAULT      CLEAR     37  30  75 CALM      30.17S
$$

...ELSEWHERE IN MINNESOTA...


CITY           SKY/WX    TMP DP  RH WIND       PRES   REMARKS
MINNEAPOLIS    MOCLDY    47  31  53 SW3       30.16R
INTNL FALLS    CLOUDY    44  42  93 NW7       30.21S
DULUTH         FAIR      42  31  64 N8        30.16R
RED WING       CLEAR     39  32  75 E3        30.16S
REDWOOD FALLS  MOCLDY    43  38  82 NW8       30.19R
MANKATO        CLEAR     45  25  45 W7        30.18R
WORTHINGTON    PTCLDY    39  34  81 NW9       30.21S WCI  33
FAIRMONT       CLEAR     43  30  61 NW9       30.18S
$$

...SOUTHWEST WISCONSIN...


CITY           SKY/WX    TMP DP  RH WIND       PRES   REMARKS
LA CROSSE      CLEAR     43  35  73 E5        30.18R
PRAIRIE DU CHI CLEAR     37  34  89 CALM      30.16R
BOSCOBEL       CLEAR     38  35  89 CALM      30.18R
LONE ROCK      NOT AVBL
PLATTEVILLE    CLEAR     37  33  85 E8        30.15R WCI  31
FORT MC COY    CLEAR     30  29  97 CALM      30.19R
VIROQUA        FAIR      38  35  88 E7        30.16S WCI  33
WIS DELLS      SUNNY     33  31  92 CALM      30.17S
$$

...ELSEWHERE IN WISCONSIN...


CITY           SKY/WX    TMP DP  RH WIND       PRES   REMARKS
MILWAUKEE      MOSUNNY   41  33  73 N5        30.17R
MADISON        MOSUNNY   36  33  89 CALM      30.18R
GREEN BAY      SUNNY     41  35  79 N3        30.19R
EAU CLAIRE     NOT AVBL
BLACK RVR FLS  FAIR      30  30 100 CALM      30.18S
MEDFORD        SUNNY     32  30  92 CALM      30.18R
WAUSAU         SUNNY     36  33  89 CALM      30.18R
WIS RAPIDS     SUNNY     35  32  88 CALM      30.20R
MARSHFIELD     SUNNY     39  34  82 CALM      30.18R
RICE LAKE      PTCLDY    33  31  93 CALM      30.19R
$$

...NORTHEAST IOWA...


CITY           SKY/WX    TMP DP  RH WIND       PRES   REMARKS
DECORAH        CLEAR     39  34  81 CALM      30.15R
MASON CITY     CLEAR     37  31  78 NW5       30.19R WCI  33
CHARLES CITY   CLEAR     41  32  70 N6        30.17R
OELWEIN        FAIR      39  34  81 NW5       30.16R
$$

...ELSEWHERE IN IOWA...


CITY           SKY/WX    TMP DP  RH WIND       PRES   REMARKS
DES MOINES     PTCLDY    46  36  68 N5        30.17S
IOWA CITY      CLEAR     41  37  86 CALM      30.17R
FORT DODGE     CLEAR     36  30  80 CALM      30.20R
$$

...NORTHERN ILLINOIS...


CITY           SKY/WX    TMP DP  RH WIND       PRES   REMARKS
CHICAGO-OHARE  MOSUNNY   39  34  82 CALM      30.16R
CHICAGO-MIDWAY MOSUNNY   43  37  79 NW3       30.17R
MOLINE         CLEAR     43  36  76 CALM      30.14S
ROCKFORD       MOSUNNY   37  34  89 CALM      30.19R
PEORIA         FAIR      41  36  82 CALM      30.16S
$$

NOTE: "FAIR" INDICATES FEW OR NO CLOUDS BELOW 12,000 FEET WITH NO
SIGNIFICANT WEATHER AND/OR OBSTRUCTIONS TO VISIBILITY. WIND
SPEEDS ARE IN MILES-PER-HOUR.



USA.gov is the U.S. government's official web portal to all federal, state and local government web resources and services.